Wind_Speed
14 14 14 14 14 14 15 15 14 13 13 14 13 13 12 13 14 14 15 15 15 15 16 17 17 17 17 18 18 18 18 18 18 19 19 20 19 19
13 14 14 14 14 15 15 15 14 14 14 14 14 14 14 15 15 15 16 16 15 16 17 18 18 18 18 18 19 18 19 18 18 19 20 20 20 20
14 14 14 14 14 14 15 15 15 15 15 15 15 15 16 16 16 16 16 16 16 17 18 18 19 19 19 19 19 19 19 18 19 20 20 20 20 20
14 14 14 14 14 15 15 15 15 15 15 15 15 16 16 16 16 16 16 17 17 18 18 18 19 18 19 19 18 18 19 19 20 20 20 20 20 20
14 14 14 13 14 15 15 15 15 16 16 16 15 16 16 16 17 17 16 17 17 18 17 18 19 19 19 18 18 19 20 20 20 20 20 21 20 20
15 14 14 14 15 15 16 16 16 16 15 15 15 16 16 16 16 17 16 17 17 18 18 18 19 19 19 19 19 19 20 20 20 21 21 21 20 20
15 15 15 15 16 15 16 16 16 16 16 15 16 16 16 16 16 17 17 17 17 18 18 19 19 19 19 20 20 20 20 20 21 22 22 21 21 21
16 16 16 17 17 17 17 17 17 17 16 16 17 17 16 17 17 17 18 18 18 18 18 18 19 19 20 20 21 20 21 22 22 22 22 22 22 22
17 17 17 17 17 17 18 18 18 18 17 17 18 18 18 17 18 18 19 19 19 19 20 20 20 20 21 21 22 22 22 22 23 22 22 23 23 23
18 18 18 18 18 18 18 18 18 19 19 18 19 18 18 18 19 19 20 21 20 21 22 21 21 21 21 22 22 23 23 23 22 22 23 24 24 24
21 20 20 20 19 20 19 19 19 19 19 19 19 19 19 19 20 21 22 22 22 22 22 22 22 22 22 22 23 23 23 22 22 23 24 24 25 25
22 22 22 22 21 21 21 20 20 20 20 20 20 20 20 20 21 22 23 23 23 22 22 22 22 23 22 21 21 22 22 23 23 24 24 24 24 25
22 23 23 22 22 22 22 21 22 21 21 21 21 21 21 21 21 21 22 22 22 22 22 22 22 22 22 22 22 22 22 23 24 23 23 23 23 23
23 23 23 22 22 23 23 23 23 23 22 22 22 22 21 21 22 22 22 22 22 22 22 22 22 22 23 23 22 22 22 23 23 23 22 22 22 23
24 24 23 23 23 23 24 24 23 23 23 22 22 22 22 22 22 22 22 22 22 23 22 22 22 22 22 22 22 22 22 22 22 22 22 21 21 21
25 26 26 25 25 25 24 24 23 23 23 23 23 22 22 22 22 22 22 22 22 22 22 22 22 22 21 22 22 22 22 22 22 22 21 20 20 21
26 27 27 26 26 25 25 24 24 23 23 23 23 22 22 22 22 22 23 22 22 21 21 22 22 22 22 22 21 22 23 23 22 22 21 21 21 21
26 27 27 27 26 26 26 25 25 25 24 24 24 23 23 23 23 23 22 22 22 21 21 22 22 23 23 22 22 23 23 23 22 21 21 21 21 21
27 27 27 27 26 25 25 24 24 24 24 24 24 24 24 24 23 23 22 22 22 22 22 22 23 24 24 24 23 24 23 23 21 21 20 21 21 22
27 27 27 26 26 26 25 25 25 25 25 25 25 24 24 24 23 23 23 23 23 23 23 23 24 24 24 24 24 24 23 22 22 21 21 21 21 21
28 28 27 27 26 26 25 25 26 26 26 26 25 24 24 24 23 24 23 24 24 24 24 24 25 25 25 25 24 23 23 23 23 22 22 22 22 22
28 27 26 25 25 25 25 25 25 24 24 24 24 24 24 24 24 24 24 24 25 25 25 26 26 27 26 26 24 23 23 23 23 24 24 23 23 23
27 26 25 25 25 25 26 26 25 24 24 23 24 25 25 25 25 25 25 25 26 26 25 26 26 26 25 25 24 24 23 23 24 24 24 24 24 24
Wind_Direction
280 282 285 288 288 290 290 285 282 280 281 280 279 279 279 281 282 284 284 283 278 279 282 284 285 287 287 286 287 288 286 285 284 284 283 283 282 279
280 282 282 285 287 289 290 285 282 279 280 279 278 277 279 282 284 284 283 282 277 277 281 284 286 287 288 287 287 287 285 284 283 285 284 283 280 278
282 283 284 286 288 288 289 286 283 282 283 282 279 281 283 285 286 283 282 278 277 279 282 285 286 288 288 287 286 285 284 283 285 286 288 284 282 279
279 280 282 286 286 288 288 287 284 283 283 283 281 282 284 286 286 282 279 276 277 280 281 285 287 290 291 289 285 285 284 283 284 284 284 285 284 280
277 279 280 283 285 288 288 288 286 284 283 284 283 283 284 284 284 283 280 280 280 281 283 286 288 290 291 291 287 285 285 285 285 282 281 283 283 281
276 278 278 281 285 288 288 288 287 284 285 285 283 284 283 282 283 282 280 281 281 283 285 289 291 291 290 288 287 286 285 285 282 283 282 283 283 282
275 275 277 281 284 286 289 290 288 284 284 285 284 284 282 281 282 282 281 281 281 284 288 290 290 289 290 288 286 286 284 284 284 285 282 281 283 283
274 275 277 282 284 285 288 290 288 286 283 283 286 285 281 279 279 282 283 281 281 286 288 289 288 288 286 286 285 284 285 286 286 284 281 283 284 284
273 276 279 282 284 285 288 289 288 286 284 285 287 286 282 279 279 281 282 284 284 286 288 289 288 287 286 287 285 285 285 286 287 282 282 284 284 284
271 275 278 281 282 283 286 287 286 286 284 284 287 285 280 278 280 283 284 286 287 287 290 291 289 288 288 287 286 285 285 285 285 284 286 285 283 285
270 273 277 280 280 282 283 284 285 286 283 283 285 284 281 280 281 283 285 285 287 289 291 292 291 290 290 288 287 285 284 285 286 287 287 286 284 286
270 272 275 277 277 280 282 282 283 285 283 283 284 284 283 282 282 283 283 284 287 287 288 289 289 290 289 289 288 287 287 287 287 289 289 289 289 288
269 270 272 275 276 278 280 280 281 282 281 283 283 284 285 285 286 286 286 284 285 285 286 286 288 289 290 289 289 289 290 289 289 288 289 291 292 289
267 269 271 274 277 277 278 278 278 281 282 283 284 285 285 286 287 287 287 286 285 285 285 286 288 288 289 290 290 291 293 292 292 291 291 291 291 290
266 269 272 274 276 277 279 278 278 279 280 283 285 286 286 286 286 286 286 287 286 286 286 286 287 287 289 291 292 292 293 294 293 292 291 291 292 292
269 272 274 276 276 277 278 277 278 278 280 282 282 284 285 285 285 285 286 286 287 287 286 286 286 287 288 291 291 292 293 294 294 292 290 291 292 291
270 272 274 275 276 276 275 274 274 275 278 281 282 283 285 285 285 285 285 285 285 286 285 285 286 287 288 289 290 290 291 292 292 291 291 292 292 292
270 271 272 271 272 273 272 272 272 273 275 278 279 280 282 283 283 285 285 284 284 285 286 287 288 288 288 288 289 290 289 289 289 289 290 292 293 293
270 271 271 270 270 270 271 270 270 271 273 275 276 278 280 281 282 282 282 283 284 285 286 288 288 289 288 289 290 291 290 288 288 290 291 292 292 292
269 270 270 269 269 269 269 269 268 270 273 275 275 277 278 278 279 279 279 281 283 285 285 286 288 290 291 290 290 292 292 291 290 290 291 291 293 294
269 270 269 269 267 267 267 268 269 270 272 274 273 275 277 277 278 280 280 281 284 285 287 287 287 289 290 291 291 292 292 291 290 289 291 291 292 294
269 270 269 269 267 266 268 267 267 269 271 272 272 273 276 277 278 280 281 282 284 286 287 288 287 287 288 290 291 290 289 288 289 289 290 291 292 295
270 269 267 267 267 266 266 265 265 266 268 271 271 272 275 277 278 279 280 281 283 285 287 289 287 285 286 288 290 290 289 287 288 289 289 290 292 294
Height
5835 5835 5835 5834 5834 5833 5833 5833 5833 5832 5832 5832 5832 5832 5832 5832 5831 5831 5831 5831 5831 5831 5831 5830 5830 5829 5828 5828 5827 5826 5825 5824 5823 5823 5822 5821 5820 5820
5831 5831 5831 5831 5830 5830 5829 5829 5829 5829 5828 5828 5828 5828 5828 5828 5827 5827 5827 5826 5826 5826 5826 5826 5825 5825 5824 5823 5822 5821 5820 5819 5818 5817 5816 5816 5815 5814
5827 5827 5827 5827 5827 5826 5826 5825 5825 5824 5824 5824 5824 5824 5823 5823 5823 5823 5822 5822 5822 5822 5822 5821 5820 5820 5818 5817 5816 5815 5815 5814 5813 5812 5811 5810 5809 5809
5823 5823 5823 5823 5823 5823 5822 5822 5821 5821 5820 5820 5820 5820 5819 5819 5819 5818 5818 5818 5818 5818 5817 5816 5815 5814 5813 5812 5810 5810 5809 5808 5808 5807 5806 5805 5804 5803
5820 5820 5820 5820 5820 5819 5818 5818 5817 5817 5816 5816 5816 5815 5815 5815 5814 5814 5813 5813 5813 5812 5812 5811 5810 5809 5808 5807 5805 5804 5804 5803 5802 5801 5800 5799 5798 5797
5816 5816 5816 5816 5816 5815 5814 5814 5813 5813 5812 5812 5811 5811 5810 5810 5809 5809 5809 5809 5809 5808 5807 5806 5805 5804 5803 5802 5801 5800 5799 5798 5797 5796 5795 5794 5793 5792
5812 5812 5813 5812 5812 5811 5811 5810 5809 5808 5808 5807 5807 5806 5806 5805 5805 5804 5804 5804 5804 5803 5802 5801 5800 5799 5798 5797 5796 5795 5794 5792 5791 5790 5789 5788 5787 5786
5808 5808 5808 5808 5808 5807 5806 5806 5805 5804 5804 5803 5802 5802 5801 5801 5800 5800 5799 5799 5799 5799 5797 5796 5795 5794 5793 5791 5790 5789 5788 5787 5786 5784 5783 5782 5781 5780
5803 5804 5804 5804 5803 5803 5802 5801 5801 5800 5799 5798 5798 5797 5796 5796 5795 5795 5794 5794 5793 5793 5791 5791 5789 5788 5787 5785 5784 5783 5782 5781 5779 5778 5777 5776 5775 5773
5798 5799 5799 5799 5798 5798 5798 5797 5796 5795 5794 5794 5793 5792 5791 5791 5790 5790 5789 5788 5788 5787 5785 5785 5783 5782 5781 5779 5778 5776 5775 5774 5773 5772 5771 5769 5768 5766
5793 5793 5793 5793 5793 5793 5793 5792 5791 5790 5789 5788 5788 5787 5786 5786 5785 5784 5783 5783 5782 5781 5779 5778 5777 5776 5774 5773 5771 5770 5769 5767 5766 5765 5764 5762 5761 5759
5787 5787 5787 5788 5788 5787 5787 5786 5786 5785 5784 5783 5782 5781 5781 5780 5779 5778 5777 5777 5776 5775 5774 5772 5770 5769 5768 5767 5765 5764 5762 5761 5760 5758 5757 5755 5753 5752
5780 5781 5781 5781 5781 5781 5781 5780 5779 5778 5778 5777 5776 5776 5775 5774 5773 5772 5771 5770 5769 5768 5767 5765 5764 5762 5761 5761 5759 5757 5756 5754 5753 5751 5749 5748 5746 5744
5774 5774 5775 5775 5775 5774 5774 5774 5773 5772 5771 5771 5770 5770 5769 5768 5767 5766 5765 5763 5762 5762 5760 5759 5758 5756 5755 5754 5752 5751 5749 5747 5746 5744 5742 5740 5738 5737
5767 5767 5768 5768 5768 5767 5767 5766 5766 5765 5765 5764 5764 5764 5763 5762 5761 5760 5758 5757 5756 5755 5754 5752 5751 5750 5748 5747 5746 5745 5743 5741 5739 5737 5735 5733 5732 5730
5760 5760 5760 5760 5760 5760 5759 5759 5759 5759 5758 5758 5758 5757 5756 5755 5754 5753 5752 5751 5750 5749 5747 5746 5744 5743 5742 5741 5739 5738 5737 5735 5733 5731 5729 5727 5725 5724
5752 5752 5752 5753 5753 5752 5752 5752 5752 5752 5752 5751 5751 5750 5750 5749 5748 5746 5745 5744 5743 5742 5741 5740 5738 5737 5735 5734 5733 5732 5730 5728 5727 5725 5723 5721 5719 5718
5745 5745 5744 5745 5745 5745 5745 5745 5745 5745 5745 5745 5744 5744 5743 5742 5741 5740 5739 5738 5737 5736 5735 5733 5732 5731 5730 5728 5727 5725 5723 5721 5720 5718 5716 5715 5713 5712
5736 5736 5736 5737 5737 5736 5737 5737 5737 5738 5738 5738 5737 5737 5736 5735 5734 5733 5732 5731 5730 5729 5728 5727 5726 5724 5723 5722 5720 5718 5716 5714 5713 5711 5710 5708 5707 5706
5728 5728 5728 5728 5728 5728 5729 5729 5730 5730 5731 5730 5730 5729 5729 5728 5727 5727 5726 5725 5724 5723 5721 5720 5719 5717 5716 5715 5713 5712 5709 5707 5706 5705 5703 5702 5700 5699
5719 5719 5719 5719 5719 5720 5720 5721 5722 5722 5722 5722 5722 5722 5721 5721 5720 5720 5719 5718 5717 5716 5714 5713 5712 5710 5708 5707 5706 5705 5703 5701 5699 5698 5696 5695 5694 5692
5711 5711 5711 5711 5711 5711 5712 5712 5713 5714 5714 5714 5714 5714 5714 5713 5713 5712 5712 5711 5710 5709 5707 5706 5704 5702 5701 5699 5698 5697 5696 5694 5693 5691 5689 5688 5686 5685
5703 5703 5703 5703 5703 5703 5704 5704 5705 5706 5706 5707 5706 5706 5706 5706 5705 5705 5704 5703 5702 5701 5699 5698 5696 5694 5693 5692 5691 5690 5688 5687 5686 5684 5683 5681 5679 5678